RANA Weather Reports


Display with metric or nautical units.
time (UTC)temp
F
wind
direction
speed
MPH
gust
MPH
rain 1hr
in
rain 24hr
in
rain mn
in
humidity
%
barometer
mb
20260902060511 57 285 9.0 11.0 0.00 0.00 0.00 75
20260902060011 57 279 9.0 11.0 0.00 0.00 0.00 75
20260902055510 57 287 9.0 11.0 0.00 0.00 0.00 75
20260902055009 57 285 9.0 11.0 0.00 0.00 0.00 76
20260902054511 57 279 9.0 11.0 0.00 0.00 0.00 76
20260902054010 57 277 9.0 11.0 0.00 0.00 0.00 76
20260902053511 57 279 11.0 11.0 0.00 0.00 0.00 77
20260902053010 57 283 9.0 11.0 0.00 0.00 0.00 76
20260902052510 57 285 9.0 9.0 0.00 0.00 0.00 76
20260902052017 57 285 9.0 9.0 0.00 0.00 0.00 77
20260902051510 55 279 11.0 11.0 0.00 0.00 0.00 79
20260902051010 55 278 9.0 11.0 0.00 0.00 0.00 79
20260902050510 55 278 11.0 13.0 0.00 0.00 0.00 78
20260902050010 55 281 13.0 13.0 0.00 0.00 0.00 77
20260902045511 55 283 13.0 16.0 0.00 0.00 0.00 77
20260902045010 55 283 13.0 13.0 0.00 0.00 0.00 78
20260902044511 55 280 11.0 13.0 0.00 0.00 0.00 79
20260902044010 55 281 11.0 11.0 0.00 0.00 0.00 79
20260902043510 55 285 9.0 11.0 0.00 0.00 0.00 79
20260902043011 55 284 9.0 9.0 0.00 0.00 0.00 79
20260902042512 55 284 9.0 11.0 0.00 0.00 0.00 79
20260902042010 55 281 11.0 11.0 0.00 0.00 0.00 79
20260902041511 57 282 11.0 11.0 0.00 0.00 0.00 79
20260902041010 57 284 9.0 11.0 0.00 0.00 0.00 78
20260902040511 57 280 9.0 9.0 0.00 0.00 0.00 77
20260902040010 59 280 9.0 9.0 0.00 0.00 0.00 77
20260902035509 59 274 9.0 9.0 0.00 0.00 0.00 76
20260902035011 59 279 7.0 7.0 0.00 0.00 0.00 76
20260902034511 57 276 7.0 9.0 0.00 0.00 0.00 77
20260902034011 57 279 7.0 7.0 0.00 0.00 0.00 79
20260902033510 57 286 7.0 7.0 0.00 0.00 0.00 79
20260902033011 57 287 7.0 9.0 0.00 0.00 0.00 79
20260902032511 57 282 7.0 7.0 0.00 0.00 0.00 79
20260902032011 57 285 7.0 7.0 0.00 0.00 0.00 78
20260902031011 59 291 7.0 7.0 0.00 0.00 0.00 76
20260902030510 59 290 7.0 7.0 0.00 0.00 0.00 76
20260902030011 59 292 7.0 9.0 0.00 0.00 0.00 75
20260902025510 59 294 7.0 7.0 0.00 0.00 0.00 76
20260902025011 59 296 7.0 7.0 0.00 0.00 0.00 76
20260902024510 59 294 7.0 9.0 0.00 0.00 0.00 76
20260902024010 59 296 7.0 7.0 0.00 0.00 0.00 76
20260902023511 59 294 7.0 9.0 0.00 0.00 0.00 75
20260902023010 59 296 7.0 9.0 0.00 0.00 0.00 76
20260902022510 59 294 7.0 9.0 0.00 0.00 0.00 76
20260902022016 59 298 9.0 11.0 0.00 0.00 0.00 75
20260902021511 59 300 9.0 11.0 0.00 0.00 0.00 75
20260902021009 59 296 9.0 9.0 0.00 0.00 0.00 75
20260902020510 59 299 9.0 9.0 0.00 0.00 0.00 74
20260902020010 59 294 9.0 9.0 0.00 0.00 0.00 74
20260902015504 59 293 9.0 9.0 0.00 0.00 0.00 74
20260902015009 59 296 9.0 9.0 0.00 0.00 0.00 74
20260902014511 59 296 9.0 9.0 0.00 0.00 0.00 75
20260902014011 59 302 9.0 9.0 0.00 0.00 0.00 75
20260902013510 59 307 9.0 9.0 0.00 0.00 0.00 74
20260902013010 59 301 9.0 11.0 0.00 0.00 0.00 75
20260902012511 59 302 9.0 9.0 0.00 0.00 0.00 74
20260902012015 59 303 9.0 9.0 0.00 0.00 0.00 73
20260902011511 59 301 9.0 9.0 0.00 0.00 0.00 73
20260902011010 59 304 7.0 9.0 0.00 0.00 0.00 73
20260902010511 59 295 7.0 9.0 0.00 0.00 0.00 73
20260902010004 59 296 9.0 9.0 0.00 0.00 0.00 72
20260902005510 59 293 9.0 9.0 0.00 0.00 0.00 72
20260902005011 59 303 9.0 9.0 0.00 0.00 0.00 72
20260902004510 59 306 9.0 9.0 0.00 0.00 0.00 72
20260902003511 59 304 7.0 9.0 0.00 0.00 0.00 71
20260902003011 59 303 7.0 9.0 0.00 0.00 0.00 72
20260902002509 59 296 7.0 9.0 0.00 0.00 0.00 72
20260902002012 59 305 9.0 9.0 0.00 0.00 0.00 72
20260902001510 59 298 9.0 9.0 0.00 0.00 0.00 71
20260902001010 59 299 9.0 9.0 0.00 0.00 0.00 70
20260902000511 59 288 9.0 11.0 0.00 0.00 0.00 69
20260902000010 59 283 11.0 11.0 0.00 0.00 0.00 68
20260901235510 59 291 13.0 13.0 0.00 0.00 0.00 69
20260901235011 59 285 16.0 18.0 0.00 0.00 0.00 68
20260901234510 59 286 13.0 16.0 0.00 0.00 0.00 67
20260901234011 61 286 13.0 16.0 0.00 0.00 0.00 66
20260901233510 59 277 16.0 16.0 0.00 0.00 0.00 66
20260901233010 59 268 16.0 16.0 0.00 0.00 0.00 67
20260901232510 59 281 13.0 16.0 0.00 0.00 0.00 66
20260901232017 59 271 16.0 18.0 0.00 0.00 0.00 67
20260901231511 59 272 13.0 13.0 0.00 0.00 0.00 66
20260901231011 61 265 11.0 13.0 0.00 0.00 0.00 64
20260901230510 61 251 16.0 16.0 0.00 0.00 0.00 62
20260901230010 61 248 13.0 16.0 0.00 0.00 0.00 62
20260901225511 61 248 13.0 13.0 0.00 0.00 0.00 62
20260901225010 61 245 11.0 13.0 0.00 0.00 0.00 62
20260901224511 61 250 11.0 11.0 0.00 0.00 0.00 63
20260901224011 61 248 11.0 11.0 0.00 0.00 0.00 63
20260901223510 61 253 11.0 11.0 0.00 0.00 0.00 64
20260901223011 61 253 11.0 11.0 0.00 0.00 0.00 62
20260901222510 63 247 11.0 11.0 0.00 0.00 0.00 61
20260901222010 63 244 11.0 11.0 0.00 0.00 0.00 61
20260901221510 63 239 9.0 11.0 0.00 0.00 0.00 61
20260901221010 63 237 11.0 11.0 0.00 0.00 0.00 60
20260901220510 63 243 9.0 9.0 0.00 0.00 0.00 60
20260901220011 63 251 9.0 9.0 0.00 0.00 0.00 60
20260901215511 64 266 7.0 7.0 0.00 0.00 0.00 60
20260901215010 64 273 7.0 7.0 0.00 0.00 0.00 60
20260901214511 64 280 7.0 7.0 0.00 0.00 0.00 60
20260901214010 64 282 7.0 7.0 0.00 0.00 0.00 59
20260901213510 64 286 9.0 9.0 0.00 0.00 0.00 58
20260901213011 64 283 9.0 9.0 0.00 0.00 0.00 58
20260901212510 64 283 9.0 9.0 0.00 0.00 0.00 59
20260901212012 64 284 9.0 9.0 0.00 0.00 0.00 59
20260901211510 64 285 9.0 9.0 0.00 0.00 0.00 59
20260901210510 64 289 7.0 9.0 0.00 0.00 0.00 59
20260901210010 64 285 7.0 9.0 0.00 0.00 0.00 60
20260901205510 64 288 7.0 9.0 0.00 0.00 0.00 59
20260901205011 64 287 7.0 9.0 0.00 0.00 0.00 59
20260901204510 64 295 4.0 7.0 0.00 0.00 0.00 58
20260901204010 64 296 7.0 9.0 0.00 0.00 0.00 58
20260901203511 64 305 7.0 7.0 0.00 0.00 0.00 58
20260901203011 64 304 7.0 9.0 0.00 0.00 0.00 57
20260901202510 64 298 7.0 9.0 0.00 0.00 0.00 56
20260901202015 64 299 7.0 9.0 0.00 0.00 0.00 58
20260901201509 64 297 7.0 9.0 0.00 0.00 0.00 59
20260901201010 64 295 7.0 7.0 0.00 0.00 0.00 57
20260901200510 64 300 7.0 9.0 0.00 0.00 0.00 56
20260901200011 64 298 9.0 9.0 0.00 0.00 0.00 59
20260901195511 64 295 7.0 9.0 0.00 0.00 0.00 59
20260901195010 64 294 9.0 9.0 0.00 0.00 0.00 58
20260901194510 64 287 9.0 9.0 0.00 0.00 0.00 58
20260901194009 64 287 9.0 9.0 0.00 0.00 0.00 57
20260901193511 64 282 9.0 9.0 0.00 0.00 0.00 57
20260901193010 66 281 9.0 9.0 0.00 0.00 0.00 57
20260901192511 66 283 9.0 9.0 0.00 0.00 0.00 57
20260901192017 66 284 9.0 9.0 0.00 0.00 0.00 57
20260901191511 66 287 9.0 9.0 0.00 0.00 0.00 57
20260901191011 66 274 9.0 9.0 0.00 0.00 0.00 56
20260901190510 66 265 7.0 9.0 0.00 0.00 0.00 55
20260901190010 66 272 9.0 9.0 0.00 0.00 0.00 54
20260901185511 66 272 11.0 11.0 0.00 0.00 0.00 54
20260901185010 66 273 11.0 13.0 0.00 0.00 0.00 53
20260901184510 66 271 11.0 11.0 0.00 0.00 0.00 54
20260901184010 66 270 11.0 11.0 0.00 0.00 0.00 53
20260901183510 66 272 9.0 11.0 0.00 0.00 0.00 52
20260901183010 66 275 11.0 11.0 0.00 0.00 0.00 52
20260901182510 66 274 11.0 11.0 0.00 0.00 0.00 52
20260901182012 66 274 9.0 11.0 0.00 0.00 0.00 52
20260901181511 66 278 9.0 11.0 0.00 0.00 0.00 52
20260901181010 66 278 11.0 11.0 0.00 0.00 0.00 52
20260901180510 66 277 11.0 11.0 0.00 0.00 0.00 52
20260901180010 66 275 11.0 11.0 0.00 0.00 0.00 51
20260901175511 66 275 13.0 13.0 0.00 0.00 0.00 51
20260901175011 66 276 11.0 13.0 0.00 0.00 0.00 51
20260901174509 68 275 9.0 11.0 0.00 0.00 0.00 51
20260901173510 68 282 11.0 11.0 0.00 0.00 0.00 50
20260901173010 68 278 11.0 11.0 0.00 0.00 0.00 50
20260901172510 68 280 9.0 11.0 0.00 0.00 0.00 50
20260901172016 68 284 9.0 11.0 0.00 0.00 0.00 50
20260901171510 68 282 9.0 11.0 0.00 0.00 0.00 50
20260901171011 68 286 9.0 11.0 0.00 0.00 0.00 51
20260901170511 68 285 11.0 11.0 0.00 0.00 0.00 50
20260901170011 68 283 11.0 13.0 0.00 0.00 0.00 50
20260901165510 68 281 11.0 13.0 0.00 0.00 0.00 50
20260901165010 68 282 11.0 13.0 0.00 0.00 0.00 50
20260901164509 68 281 11.0 11.0 0.00 0.00 0.00 50
20260901164011 68 280 13.0 13.0 0.00 0.00 0.00 50
20260901163510 68 277 13.0 16.0 0.00 0.00 0.00 49
20260901163010 68 278 13.0 16.0 0.00 0.00 0.00 48
20260901162513 70 271 13.0 16.0 0.00 0.00 0.00 48
20260901162009 70 285 9.0 11.0 0.00 0.00 0.00 47
20260901161511 72 275 9.0 11.0 0.00 0.00 0.00 47
20260901161010 70 277 9.0 11.0 0.00 0.00 0.00 47
20260901160510 70 292 9.0 9.0 0.00 0.00 0.00 49
20260901160010 70 271 11.0 13.0 0.00 0.00 0.00 46
20260901155511 70 286 13.0 16.0 0.00 0.00 0.00 47
20260901155010 70 295 11.0 16.0 0.00 0.00 0.00 47
20260901154510 70 287 13.0 13.0 0.00 0.00 0.00 46
20260901154011 70 287 9.0 11.0 0.00 0.00 0.00 48
20260901153510 70 293 11.0 11.0 0.00 0.00 0.00 48
20260901153010 68 282 13.0 13.0 0.00 0.00 0.00 48
20260901152511 70 285 11.0 11.0 0.00 0.00 0.00 48
20260901152012 70 281 11.0 13.0 0.00 0.00 0.00 48
20260901151511 70 269 13.0 16.0 0.00 0.00 0.00 48
20260901151011 70 274 13.0 16.0 0.00 0.00 0.00 48
20260901150510 70 270 9.0 11.0 0.00 0.00 0.00 48
20260901150011 72 293 4.0 7.0 0.00 0.00 0.00 48
20260901145510 70 302 2.0 4.0 0.00 0.00 0.00 49
20260901145010 70 277 4.0 4.0 0.00 0.00 0.00 48
20260901144510 70 323 4.0 7.0 0.00 0.00 0.00 47
20260901144010 70 323 7.0 9.0 0.00 0.00 0.00 48
20260901143510 70 336 4.0 7.0 0.00 0.00 0.00 49
20260901143011 70 328 4.0 9.0 0.00 0.00 0.00 47
20260901142510 70 331 2.0 4.0 0.00 0.00 0.00 47
20260901142015 68 329 4.0 7.0 0.00 0.00 0.00 50
20260901141510 68 323 4.0 7.0 0.00 0.00 0.00 51
20260901141011 70 322 7.0 9.0 0.00 0.00 0.00 50
20260901140511 72 313 7.0 9.0 0.00 0.00 0.00 47
20260901140010 70 311 2.0 4.0 0.00 0.00 0.00 50
20260901135511 70 310 7.0 9.0 0.00 0.00 0.00 49
20260901135010 68 309 4.0 9.0 0.00 0.00 0.00 52
20260901134510 70 304 7.0 7.0 0.00 0.00 0.00 47
20260901134010 68 311 4.0 4.0 0.00 0.00 0.00 52
20260901133510 68 312 2.0 7.0 0.00 0.00 0.00 51
20260901133010 68 328 4.0 7.0 0.00 0.00 0.00 52
20260901132511 68 300 7.0 9.0 0.00 0.00 0.00 51
20260901132010 68 260 9.0 13.0 0.00 0.00 0.00 49
20260901131511 70 285 11.0 13.0 0.00 0.00 0.00 48
20260901131010 72 271 13.0 18.0 0.00 0.00 0.00 46
20260901130510 72 246 4.0 7.0 0.00 0.00 0.00 47
20260901130011 70 257 13.0 18.0 0.00 0.00 0.00 47
20260901125510 70 262 11.0 13.0 0.00 0.00 0.00 48
20260901125010 70 246 9.0 11.0 0.00 0.00 0.00 51
20260901124511 70 271 18.0 20.0 0.00 0.00 0.00 48
20260901124010 70 260 13.0 13.0 0.00 0.00 0.00 48
20260901123511 72 239 9.0 11.0 0.00 0.00 0.00 49
20260901123011 70 249 9.0 11.0 0.00 0.00 0.00 49
20260901122510 68 263 13.0 16.0 0.00 0.00 0.00 51
20260901122012 68 301 11.0 16.0 0.00 0.00 0.00 51
20260901121510 68 289 11.0 13.0 0.00 0.00 0.00 54
20260901121010 66 263 13.0 18.0 0.00 0.00 0.00 54
20260901120517 66 261 11.0 11.0 0.00 0.00 0.00 52
20260901120011 66 285 16.0 18.0 0.00 0.00 0.00 52
20260901115511 68 275 9.0 13.0 0.00 0.00 0.00 51
20260901115010 68 272 9.0 11.0 0.00 0.00 0.00 51
20260901114510 68 288 11.0 11.0 0.00 0.00 0.00 52
20260901114010 66 291 13.0 16.0 0.00 0.00 0.00 54
20260901113511 66 270 11.0 13.0 0.00 0.00 0.00 55
20260901113010 66 256 9.0 11.0 0.00 0.00 0.00 56
20260901112511 66 271 9.0 11.0 0.00 0.00 0.00 55
20260901112010 66 273 13.0 16.0 0.00 0.00 0.00 55
20260901111510 66 264 11.0 13.0 0.00 0.00 0.00 55
20260901111011 64 280 20.0 22.0 0.00 0.00 0.00 56
20260901110511 66 259 18.0 20.0 0.00 0.00 0.00 55
20260901110010 66 255 16.0 18.0 0.00 0.00 0.00 56
20260901105510 66 280 13.0 16.0 0.00 0.00 0.00 56
20260901105011 64 256 9.0 11.0 0.00 0.00 0.00 58
20260901104510 66 277 20.0 22.0 0.00 0.00 0.00 54
20260901104010 68 248 11.0 13.0 0.00 0.00 0.00 55
20260901103511 66 254 13.0 16.0 0.00 0.00 0.00 57
20260901103010 66 250 11.0 13.0 0.00 0.00 0.00 59
20260901102511 64 246 13.0 16.0 0.00 0.00 0.00 58
20260901102009 64 253 9.0 11.0 0.00 0.00 0.00 58
20260901101511 64 270 18.0 25.0 0.00 0.00 0.00 58
20260901101010 64 274 13.0 16.0 0.00 0.00 0.00 58
20260901100518 64 276 13.0 16.0 0.00 0.00 0.00 59
20260901100011 64 261 13.0 16.0 0.00 0.00 0.00 59
20260901095510 64 266 13.0 16.0 0.00 0.00 0.00 56
20260901095010 64 276 16.0 18.0 0.00 0.00 0.00 58
20260901094511 64 268 13.0 16.0 0.00 0.00 0.00 60
20260901094010 64 273 16.0 18.0 0.00 0.00 0.00 58
20260901093510 64 267 16.0 18.0 0.00 0.00 0.00 58
20260901093011 64 265 16.0 18.0 0.00 0.00 0.00 58
20260901092510 64 270 13.0 18.0 0.00 0.00 0.00 59
20260901092012 64 292 18.0 20.0 0.00 0.00 0.00 58
20260901091510 64 288 11.0 16.0 0.00 0.00 0.00 58
20260901091011 64 297 16.0 18.0 0.00 0.00 0.00 58
20260901090510 64 278 18.0 20.0 0.00 0.00 0.00 58
20260901090010 64 290 20.0 27.0 0.00 0.00 0.00 58
20260901085511 64 276 20.0 25.0 0.00 0.00 0.00 58
20260901085010 64 289 16.0 18.0 0.00 0.00 0.00 60
20260901084510 64 288 11.0 13.0 0.00 0.00 0.00 62
20260901084011 64 300 18.0 20.0 0.00 0.00 0.00 60
20260901083511 64 287 16.0 20.0 0.00 0.00 0.00 61
20260901083011 64 297 18.0 22.0 0.00 0.00 0.00 61
20260901082511 63 282 20.0 25.0 0.00 0.00 0.00 62
20260901082010 63 290 20.0 22.0 0.00 0.00 0.00 64
20260901081510 63 287 13.0 18.0 0.00 0.00 0.00 64
20260901081010 63 275 16.0 18.0 0.00 0.00 0.00 67
20260901080511 63 278 13.0 16.0 0.00 0.00 0.00 67
20260901080011 61 293 11.0 13.0 0.00 0.00 0.00 68
20260901075510 61 282 16.0 20.0 0.00 0.00 0.00 68
20260901075011 61 277 20.0 22.0 0.00 0.00 0.00 68
20260901074510 61 290 18.0 18.0 0.00 0.00 0.00 67
20260901074010 61 284 16.0 16.0 0.00 0.00 0.00 68
20260901073510 63 282 16.0 20.0 0.00 0.00 0.00 69
20260901073011 63 277 20.0 25.0 0.00 0.00 0.00 67
20260901072509 61 296 18.0 20.0 0.00 0.00 0.00 67
20260901072016 61 281 22.0 25.0 0.00 0.00 0.00 67
20260901071511 61 284 18.0 22.0 0.00 0.00 0.00 69
20260901071010 61 275 18.0 20.0 0.00 0.00 0.00 69
20260901070518 61 276 20.0 22.0 0.00 0.00 0.00 70
20260901070011 61 280 18.0 20.0 0.00 0.00 0.00 71
20260901065511 61 282 16.0 18.0 0.00 0.00 0.00 71
20260901065011 61 278 16.0 18.0 0.00 0.00 0.00 72
20260901064511 61 283 16.0 18.0 0.00 0.00 0.00 74
20260901064010 61 285 9.0 11.0 0.00 0.00 0.00 74
20260901063510 61 281 9.0 9.0 0.00 0.00 0.00 75
20260901063011 59 287 9.0 11.0 0.00 0.00 0.00 79
20260901062510 59 273 11.0 11.0 0.00 0.00 0.00 77
20260901062011 59 268 11.0 13.0 0.00 0.00 0.00 75
20260901061510 59 260 13.0 16.0 0.00 0.00 0.00 74
20260901061010 61 259 11.0 11.0 0.00 0.00 0.00 74